Location: Eboldshausen
(51.7766°N, 10.0050°E)
Time: 09:39:26
(UTC+00:00)

COSMOS 2455 - Visible Passes

Search period start: 08 September 2024 00:00
Search period end: 18 September 2024 00:00
Orbit: 898 x 911 km, 67.1° (Epoch: 07 September)

Date Brightness Start Highest point End Pass type
(mag) Time Alt. Az. Time Alt. Az. Time Alt. Az.
08 Sep 4.8 02:19:55 10° SSE 02:24:30 23° ESE 02:29:05 10° ENE visible
08 Sep 2.9 04:03:43 10° SW 04:09:46 84° NW 04:15:51 10° NE visible
09 Sep 4.4 02:23:08 11° SSE 02:28:08 30° ESE 02:33:15 10° NE visible
09 Sep 3.0 04:07:38 10° SW 04:13:39 68° NW 04:19:42 10° NE visible
10 Sep 4.0 02:27:28 16° S 02:31:48 38° ESE 02:37:20 10° NE visible
10 Sep 3.1 04:11:39 10° WSW 04:17:34 56° NW 04:23:33 10° NE visible
11 Sep 3.6 02:31:43 21° S 02:35:31 49° ESE 02:41:19 10° NE visible
12 Sep 5.1 00:52:44 11° ESE 00:54:32 13° E 00:57:01 10° ENE visible
12 Sep 3.2 02:35:53 26° SSW 02:39:17 62° ESE 02:45:15 10° NE visible
13 Sep 4.8 00:56:52 16° ESE 00:58:06 17° ESE 01:01:50 10° ENE visible
13 Sep 2.9 02:40:02 31° SSW 02:43:05 78° SE 02:49:09 10° NE visible
14 Sep 4.5 01:00:57 22° ESE 01:01:41 22° ESE 01:06:13 10° ENE visible
14 Sep 2.8 02:44:06 34° SW 02:46:56 85° NW 02:53:02 10° NE visible
15 Sep 4.1 01:04:59 29° ESE 01:05:19 29° ESE 01:10:24 10° NE visible
15 Sep 2.9 02:48:07 34° WSW 02:50:48 70° NW 02:56:53 10° NE visible
16 Sep 3.8 01:08:58 37° ESE 01:08:59 37° ESE 01:14:29 10° NE visible
16 Sep 3.1 02:52:06 33° WSW 02:54:44 57° NW 03:00:43 10° NE visible
17 Sep 3.4 01:12:55 47° ESE 01:12:55 47° ESE 01:18:28 10° NE visible
17 Sep 3.4 02:56:03 30° W 02:58:42 47° NW 03:04:32 10° NNE visible
17 Sep 5.3 23:33:42 11° E 23:33:42 11° E 23:34:03 10° ENE visible
